RH
33 21 5 5 5 9 15 22 21 32 39 47 34 36 35 32 22 11 13 14 14 16 24 23 13 30 79 54 41 94 100 96 86 85 62 48 54 44 47 42 43 54 50 49 52
42 40 12 6 6 9 18 22 23 30 44 47 36 38 39 32 17 11 15 19 18 26 39 48 41 53 73 81 66 98 100 91 75 79 60 52 55 50 45 45 45 50 56 59 55
86 55 23 7 6 10 19 23 26 29 50 43 37 43 42 33 16 16 26 27 23 22 38 64 65 64 70 88 78 81 98 93 83 79 61 57 53 58 46 46 50 55 58 47 62
98 85 46 8 8 11 21 23 29 30 48 36 42 48 42 35 21 29 24 26 30 24 55 70 78 95 87 97 80 90 96 92 84 78 65 57 61 62 55 47 43 43 56 54 65
95 93 65 15 8 12 20 24 31 32 42 39 50 47 44 35 18 18 20 25 31 30 41 82 74 65 96 82 90 79 92 88 92 79 71 66 67 72 58 53 47 41 40 68 69
98 97 83 30 9 13 20 25 32 36 40 47 54 46 40 26 28 21 19 24 32 32 40 81 90 81 98 94 78 70 83 85 86 75 78 94 86 83 69 57 50 47 45 50 58
91 94 100 33 9 15 22 27 30 39 42 56 57 48 49 45 38 28 32 37 42 50 40 62 99 98 98 93 80 94 75 90 89 67 97 88 94 83 75 63 53 46 44 41 41
99 94 97 37 10 17 23 29 33 40 48 60 53 60 66 67 49 53 65 83 94 73 62 82 93 97 99 94 94 94 89 97 91 83 99 100 94 97 83 75 71 56 47 45 43
97 100 96 23 11 19 26 32 38 42 54 59 60 72 65 53 70 81 89 95 95 93 75 95 98 98 97 98 97 96 95 90 98 90 95 81 100 97 98 98 97 84 66 61 55
100 81 98 12 11 22 30 34 40 49 61 60 69 77 64 71 89 94 97 95 92 94 89 90 96 97 98 96 98 90 97 87 100 96 99 98 86 100 99 94 96 88 77 69 68
89 100 74 10 12 23 33 37 42 51 67 62 77 84 74 83 98 88 85 90 94 89 80 85 89 98 95 85 88 91 84 88 90 99 98 100 93 100 100 92 92 87 83 73 64
99 97 92 10 11 24 33 37 48 51 69 71 78 79 74 92 95 79 77 89 90 86 85 92 90 94 94 99 87 94 92 78 96 97 100 99 94 100 99 98 88 83 75 68 71
98 98 100 49 11 27 34 42 45 60 63 69 72 70 89 93 98 77 81 96 89 90 98 98 95 74 74 96 91 90 72 74 82 100 98 97 96 90 89 78 73 67 62 68 59
100 92 79 59 10 28 37 46 44 68 72 77 79 76 95 100 94 90 79 95 98 97 98 98 99 100 61 73 95 98 86 56 89 99 97 96 91 73 70 62 66 68 66 64 59
100 89 99 65 11 29 37 43 61 69 90 80 69 74 95 91 89 92 95 96 98 94 98 98 99 87 75 97 99 85 75 79 86 97 99 100 74 55 74 76 59 56 59 55 52
100 95 92 64 11 32 39 47 69 82 82 92 74 82 99 92 94 98 98 98 99 98 98 99 99 95 68 87 81 68 82 87 91 91 98 84 85 51 54 54 52 58 61 46 44
99 86 94 38 18 34 44 64 75 75 85 80 78 89 89 96 91 95 100 92 97 97 96 99 100 100 98 82 94 84 76 98 98 98 86 62 84 48 47 46 44 46 55 51 55
100 99 89 55 20 39 51 74 74 82 98 84 83 91 86 85 81 91 98 97 96 98 98 98 98 98 88 86 86 81 68 63 88 92 74 70 64 48 45 44 45 53 56 60 62
97 90 95 16 26 45 63 78 72 82 84 85 96 95 82 81 82 86 87 93 98 81 88 87 98 90 94 88 91 78 61 62 56 67 58 54 49 50 47 46 42 44 49 50 57
99 98 72 12 33 53 79 75 81 81 89 92 95 99 79 77 85 88 88 66 86 92 73 80 96 85 75 80 73 72 67 58 52 73 66 62 48 47 51 45 46 53 59 59 56
99 97 67 15 39 69 81 79 86 94 92 86 92 91 86 81 86 93 82 66 82 88 80 76 78 86 74 76 71 67 57 56 60 65 74 66 46 44 49 46 45 44 44 42 40
100 91 41 21 48 99 98 99 91 95 92 86 92 83 81 91 98 89 84 78 70 77 70 67 73 90 89 81 74 70 62 55 52 59 61 55 47 39 45 45 43 42 44 47 49
100 97 24 36 65 99 97 97 99 93 90 91 90 92 77 75 84 81 60 50 43 54 56 59 74 84 80 79 81 76 72 63 60 59 55 55 55 49 57 58 57 54 52 49 47
99 66 28 42 60 100 100 97 98 97 94 92 89 92 85 82 84 82 74 52 46 48 43 52 66 68 72 70 68 71 66 69 62 66 66 54 56 60 62 59 57 57 57 59 60
90 41 16 35 55 86 100 98 98 97 90 90 96 96 87 82 81 87 93 87 68 60 65 78 79 84 84 86 70 64 63 67 65 66 65 57 55 62 63 68 70 70 68 67 69
99 50 14 28 47 95 100 97 89 81 87 90 91 96 91 76 79 87 96 98 80 84 94 87 82 82 84 75 71 79 77 72 75 76 74 69 63 67 68 68 66 69 72 77 73
68 18 26 32 63 96 99 95 89 76 83 85 84 86 90 84 84 88 99 92 86 90 93 86 77 83 76 74 67 60 56 66 76 75 74 78 75 82 81 78 78 82 81 78 72
Wind_Speed
35 38 38 39 36 32 29 24 21 20 21 21 21 20 20 19 19 20 17 19 19 20 18 19 31 34 26 33 42 41 36 39 41 30 35 33 24 33 32 31 33 33 31 24 21
37 37 39 39 39 33 27 24 21 18 21 21 20 20 20 19 19 19 20 19 19 19 19 23 26 28 33 34 41 40 41 40 47 32 34 34 32 30 37 25 30 31 29 23 27
42 41 40 40 40 34 27 23 21 20 20 19 19 19 20 21 20 21 14 11 16 19 22 21 26 25 34 34 40 46 40 45 40 36 33 32 34 33 36 32 28 28 31 31 30
47 41 43 41 40 34 27 22 21 20 20 18 19 20 19 21 13 11 13 16 18 17 16 16 24 28 32 40 40 41 46 40 40 38 34 39 34 34 31 36 32 27 21 25 29
45 40 43 41 39 33 27 22 20 20 18 19 19 19 20 21 18 22 20 17 17 15 13 16 25 36 29 36 38 48 35 38 38 37 37 35 30 22 34 34 36 33 31 26 25
43 36 44 42 39 32 26 21 19 18 17 17 18 18 19 17 19 21 22 15 16 16 14 15 22 28 33 32 42 42 39 35 29 39 38 34 33 25 28 36 32 31 30 29 28
44 41 44 43 38 31 25 21 17 15 15 16 18 17 17 16 17 18 20 17 12 15 18 15 22 25 25 28 38 28 39 29 37 36 36 34 35 28 32 32 33 34 32 31 29
38 41 43 43 38 29 24 19 16 14 13 13 16 17 16 13 10 12 15 15 14 13 12 13 15 20 22 32 29 34 24 34 36 32 36 31 30 35 29 31 30 30 27 26 28
34 38 41 40 36 28 22 17 15 13 12 11 13 15 7 11 13 11 14 19 12 6 9 11 5 11 22 33 23 34 20 36 25 37 30 47 22 27 32 32 27 26 26 24 25
35 39 42 37 34 26 20 16 14 12 11 9 9 14 10 14 13 10 12 1 6 8 8 8 5 15 17 41 15 27 22 30 23 28 18 29 31 25 36 31 32 26 26 24 23
35 31 38 35 31 24 18 15 12 11 8 7 10 12 10 8 11 5 4 3 7 9 7 5 7 15 23 32 22 22 30 22 28 20 36 20 36 31 31 29 29 28 27 27 24
29 32 31 38 29 22 15 13 9 8 5 5 11 10 8 8 7 1 1 4 8 8 9 6 6 15 24 22 24 22 26 21 14 28 18 18 18 21 33 31 31 27 27 28 27
25 35 28 42 28 19 14 11 8 4 2 5 8 9 10 10 6 0 3 4 7 9 10 6 2 13 22 23 28 23 26 25 19 17 19 12 13 26 20 21 30 34 30 35 33
29 24 24 37 27 18 12 9 7 2 2 5 8 9 9 7 9 4 6 5 5 6 7 4 9 13 20 22 24 25 28 34 16 13 8 17 5 18 20 27 26 32 27 30 36
26 25 28 29 25 14 10 7 2 2 3 3 6 6 7 7 4 4 4 5 4 6 2 4 11 21 25 26 22 19 24 20 19 5 7 16 5 1 22 33 33 30 31 30 28
22 23 29 26 21 12 6 4 6 2 2 2 3 1 5 9 12 18 17 13 12 11 5 16 18 20 26 19 18 21 23 22 20 17 3 3 4 1 15 23 25 24 28 24 20
29 21 16 25 15 8 5 8 4 1 5 2 4 6 8 7 10 15 16 12 6 6 9 23 22 25 21 20 19 24 28 5 4 4 4 15 9 3 4 9 8 19 23 17 16
31 22 21 25 14 7 8 9 3 9 5 4 8 4 3 5 7 9 13 14 13 12 10 10 13 18 23 21 20 30 19 5 4 4 4 15 5 4 2 8 10 16 18 16 16
24 28 19 19 11 8 12 8 6 12 8 4 8 6 6 3 6 7 11 12 11 8 3 6 11 27 21 17 26 22 10 4 8 7 5 7 4 8 11 9 7 13 17 19 22
20 20 13 21 10 10 15 7 11 11 8 3 4 5 4 9 6 6 4 9 11 11 8 11 12 18 21 25 11 10 11 3 4 3 3 2 4 8 19 15 12 11 13 15 18
24 18 16 20 13 13 13 10 16 13 11 6 5 7 8 9 8 5 3 8 11 15 16 15 8 10 17 10 11 14 8 3 4 3 4 4 3 11 17 16 15 15 18 20 17
17 15 17 18 15 14 12 12 15 15 10 9 5 7 9 10 7 3 5 6 14 15 12 8 12 8 8 9 10 12 12 8 4 2 4 2 1 10 14 12 10 13 15 15 15
16 16 17 18 16 16 13 19 16 13 15 12 8 9 9 6 3 3 8 10 13 13 7 9 10 9 4 5 12 12 12 13 8 6 5 3 3 13 15 14 13 11 11 12 14
18 22 22 23 18 19 17 26 17 14 16 11 13 14 14 9 3 7 9 12 14 10 7 6 11 5 9 4 10 18 16 16 12 5 5 5 18 17 14 11 11 10 11 12 14
24 23 17 16 26 21 22 24 19 16 14 14 15 14 12 10 8 6 9 12 14 10 9 6 8 8 7 3 7 8 16 18 19 18 8 8 20 19 15 11 10 12 15 18 20
24 24 18 12 21 24 24 26 20 18 18 17 16 15 12 10 7 11 11 13 9 13 12 9 10 9 6 4 5 7 7 17 21 20 18 16 13 17 18 20 21 22 21 21 25
25 22 13 14 27 27 25 25 20 16 18 17 16 13 10 8 5 7 11 11 7 10 11 8 7 7 3 4 4 7 11 12 14 21 23 23 22 21 22 22 21 22 24 27 28
Wind_Direction
352 351 345 346 343 338 326 321 313 302 295 290 294 296 293 299 301 296 290 284 281 280 271 244 240 234 217 209 208 210 218 214 215 218 209 202 207 202 200 196 202 204 217 224 218
344 347 342 343 339 339 327 321 314 301 296 291 298 296 293 297 293 287 289 284 276 272 269 265 241 230 214 215 206 205 219 215 218 216 208 207 203 203 213 205 201 205 200 212 221
338 341 342 340 336 339 329 321 314 303 297 293 296 291 292 296 289 287 282 278 279 281 288 259 233 218 219 211 209 202 216 215 216 211 206 199 204 209 212 216 200 201 202 217 213
331 331 340 337 334 336 327 321 310 302 297 295 295 287 290 294 284 274 271 282 276 274 286 244 226 219 218 210 205 205 215 213 214 208 205 203 199 204 209 217 218 213 211 216 218
328 332 336 334 332 334 326 318 308 300 297 298 297 286 294 292 283 275 278 272 270 271 273 249 222 219 216 214 208 209 209 212 214 212 212 207 196 209 213 214 216 220 215 209 217
326 325 332 332 330 332 324 317 307 299 298 298 295 291 303 300 284 280 283 273 269 273 264 259 230 225 218 207 205 211 201 210 213 214 219 211 214 210 212 210 209 207 208 210 212
322 325 331 329 327 330 322 318 309 298 296 298 293 305 309 299 289 284 284 290 286 273 273 266 216 205 219 189 203 207 209 203 204 212 218 215 209 205 214 213 217 219 222 224 223
319 318 323 325 325 327 320 317 308 299 300 297 296 313 318 308 284 286 282 290 287 277 251 257 246 199 199 191 200 198 201 212 200 207 209 211 209 195 205 206 209 215 217 213 211
320 314 320 322 322 326 319 316 308 302 305 291 307 319 327 317 311 303 305 293 269 244 219 250 243 221 198 179 187 190 192 200 198 203 212 217 210 191 191 191 196 206 211 208 203
304 315 321 320 321 324 318 316 306 313 305 287 314 331 327 328 327 312 318 309 177 187 208 262 278 187 200 185 170 186 187 200 187 197 200 210 216 185 181 189 192 197 207 205 202
308 319 316 318 321 322 316 315 304 316 303 299 326 327 317 335 330 301 339 216 145 179 207 245 252 189 214 188 195 181 189 196 215 172 208 188 205 205 187 194 192 199 209 216 216
302 310 321 315 321 319 314 308 308 311 288 331 337 342 337 338 334 360 228 195 187 188 208 225 251 190 186 184 183 191 192 197 203 236 206 190 218 208 199 199 197 203 213 220 227
289 303 319 316 319 319 312 300 315 311 213 25 2 11 2 350 330 265 218 212 220 227 217 206 185 188 208 180 179 198 192 188 194 181 206 204 235 242 255 211 214 209 227 223 224
274 297 308 311 315 314 304 304 314 288 154 30 20 29 15 23 12 344 267 240 262 250 222 230 152 159 189 203 171 180 194 198 168 160 182 209 239 242 236 212 215 212 214 222 225
271 285 301 313 311 309 300 286 215 165 44 9 35 29 43 62 58 360 288 234 244 182 181 113 143 162 184 187 158 165 177 190 211 179 89 151 164 264 191 202 208 205 210 211 216
265 292 291 306 305 304 281 224 155 166 271 43 47 51 41 68 50 52 42 96 86 92 130 120 149 152 183 145 141 166 174 178 168 207 70 115 188 2 209 227 218 213 203 207 215
265 287 294 304 300 292 224 170 144 150 148 117 128 85 96 77 69 62 59 60 69 95 118 102 134 155 157 154 143 157 162 125 133 152 193 179 188 170 96 197 200 213 212 211 209
249 276 285 289 293 256 193 173 156 148 175 155 159 139 146 104 76 69 87 85 54 77 67 100 115 138 159 154 162 154 168 152 132 167 164 171 217 157 195 168 191 176 187 200 205
250 262 269 276 273 226 185 197 154 161 175 194 190 180 179 163 124 102 84 78 65 101 38 78 70 102 131 143 152 166 132 115 112 103 115 173 164 158 175 198 207 200 204 214 225
239 257 272 271 251 207 190 191 165 163 168 144 141 185 170 147 138 124 92 76 70 93 131 122 104 114 136 150 145 145 145 128 79 114 105 214 187 191 199 204 195 188 197 204 216
222 235 254 259 236 196 201 179 168 172 156 173 202 188 177 156 141 118 126 101 99 98 111 132 135 138 145 157 153 162 166 107 94 72 139 139 227 211 207 213 217 220 225 228 222
209 214 238 241 214 191 190 175 174 171 176 153 139 142 153 138 128 146 156 142 138 123 114 117 152 120 130 149 173 184 184 193 155 156 96 105 253 218 192 179 188 201 205 205 205
205 234 229 220 206 193 179 171 168 177 160 163 145 150 138 146 118 140 160 152 161 142 121 121 146 127 150 202 196 192 183 191 166 155 164 122 155 153 165 176 195 221 236 256 266
207 211 215 216 208 180 184 171 169 170 159 160 167 157 160 159 186 191 191 169 173 164 153 143 151 176 184 169 191 215 207 205 209 202 181 175 163 165 171 190 209 233 255 267 276
203 218 224 218 205 179 177 173 179 170 176 165 164 160 158 163 172 185 174 166 168 179 170 161 164 151 144 138 192 214 225 219 220 225 226 207 182 179 197 221 247 263 271 273 278
206 212 213 209 181 171 175 182 181 167 165 168 174 166 171 166 181 184 174 164 161 179 173 175 174 172 172 176 211 219 219 217 225 233 236 240 228 248 270 281 282 282 280 283 285
204 203 192 194 175 178 180 175 187 180 172 180 179 182 185 179 128 172 156 154 165 183 184 179 171 172 205 213 243 274 244 243 237 238 243 246 254 266 273 276 270 273 279 280 281